Tracking 33485 objects as of 15-Mar-2026
HD Live streaming from Space Station
objects crossing your sky now

STARLINK-35339

Track STARLINK-35339 now!
10-day predictions
STARLINK-35339 is classified as:


NORAD ID: 66028
Int'l Code: 2025-232Z
Perigee: 481.3 km
Apogee: 483.3 km
Inclination: 53.2 °
Period: 94.1 minutes
Semi major axis: 6853 km
RCS: Unknown
Launch date: October 16, 2025
Source: United States (US)
Launch site: AIR FORCE EASTERN TEST RANGE (AFETR)
Your satellite tracking list
Your tracking list is empty




NASA's NSSDC Master Catalog

Two Line Element Set (TLE):
1 66028U 25232Z   26073.72064709  .00019436  00000-0  66633-3 0  9999
2 66028  53.1586  80.6820 0001494  86.8946 273.2226 15.30214607 24206
Source of the keplerian elements: AFSPC